Weather History for Tracy, MN

Change the Weather History Date:

Saturday, August 23, 2014

  Actual Average (KMML) Record (KMML)
Temperature  
Mean Temperature 74 °F -  
Max Temperature 81 °F 80 °F 101 °F (1971)
Min Temperature 68 °F 57 °F 43 °F (1987)
Cooling Degree Days 9    
Growing Degree Days 24 (Base 50)    
Moisture  
Dew Point 70 °F    
Average Humidity 89    
Maximum Humidity 97    
Minimum Humidity 79    
Precipitation  
Precipitation 0.12 in - - ()
Sea Level Pressure  
Sea Level Pressure 29.91 in    
Wind  
Wind Speed 6 mph (ESE)    
Max Wind Speed 17 mph    
Max Gust Speed 25 mph    
Visibility 8 miles    
Events Rain , Thunderstorm    
Averages and records for this station are not official NWS values.
T = Trace of Precipitation, MM = Missing Value Source: NWS Daily Summary

Daily Weather History Graph

Daily Weather History Graph

Search for Another Location

Airport:

Trip Planner

Search our weather history database for the weather conditions in past years. The results will help you decide how hot, cold, wet, or windy it might be!

Date:

Astronomy

Aug. 23, 2014 Rise Set
Actual Time 6:35 AM CDT 8:14 PM CDT
Civil Twilight 6:04 AM CDT 8:44 PM CDT
Nautical Twilight 5:27 AM CDT 9:21 PM CDT
Astronomical Twilight 4:46 AM CDT 10:01 PM CDT
Moon 4:50 AM CDT (8/23) 6:59 PM CDT (8/23)
Length of Visible Light 14h 40m
Length of Day
13h 39m
Waning Crescent, 3% of the Moon is Illuminated
Aug 23
Waning Crescent
Aug 25
New
Sep 2
First Quarter
Sep 8
Full
Sep 15
Last Quarter

Hourly Weather History & Observations

Time (CDT) Temp. Heat Index Dew Point Humidity Pressure Visibility Wind Dir Wind Speed Gust Speed Precip Events Conditions
12:13 AM 73.0 °F - 70.2 °F 91% 30.00 in 10.0 mi East 3.5 mph - N/A   Clear
12:33 AM 72.9 °F - 70.0 °F 91% 30.01 in 10.0 mi Calm Calm - N/A   Clear
12:53 AM 72.1 °F - 70.2 °F 93% 30.00 in 10.0 mi Calm Calm - N/A   Clear
1:13 AM 72.0 °F - 70.0 °F 93% 30.00 in 10.0 mi Calm Calm - N/A   Clear
1:33 AM 71.2 °F - 69.8 °F 95% 30.01 in 7.0 mi SE 3.5 mph - N/A   Clear
1:53 AM 71.1 °F - 69.3 °F 94% 30.00 in 7.0 mi East 4.6 mph - N/A   Clear
2:13 AM 70.7 °F - 69.1 °F 95% 29.99 in 7.0 mi ESE 5.8 mph - N/A   Clear
2:33 AM 70.2 °F - 68.5 °F 95% 29.99 in 7.0 mi East 5.8 mph - N/A   Clear
2:53 AM 69.8 °F - 68.4 °F 95% 30.00 in 7.0 mi ESE 4.6 mph - N/A   Clear
3:12 AM 69.3 °F - 68.0 °F 96% 29.99 in 5.0 mi East 4.6 mph - N/A   Clear
3:33 AM 68.9 °F - 67.6 °F 96% 30.00 in 5.0 mi ESE 4.6 mph - N/A   Scattered Clouds
4:12 AM 68.4 °F - 67.3 °F 96% 29.99 in 3.0 mi Calm Calm - N/A   Clear
4:33 AM 68.2 °F - 67.1 °F 96% 29.99 in 3.0 mi Calm Calm - N/A   Mostly Cloudy
4:53 AM 68.0 °F - 67.1 °F 97% 29.99 in 2.5 mi Calm Calm - N/A   Overcast
5:13 AM 68.0 °F - 67.1 °F 97% 29.99 in 2.5 mi Calm Calm - N/A   Overcast
5:33 AM 68.0 °F - 67.1 °F 97% 29.99 in 1.2 mi Calm Calm - N/A   Overcast
6:12 AM 68.0 °F - 67.1 °F 97% 30.02 in 0.5 mi Calm Calm - N/A Rain , Thunderstorm Light Thunderstorms and Rain
6:32 AM 68.2 °F - 67.3 °F 97% 30.02 in 2.0 mi Calm Calm - N/A Rain Light Rain
7:13 AM 68.5 °F - 67.6 °F 97% 30.00 in 2.5 mi East 6.9 mph - 0.07 in Rain Heavy Rain
7:33 AM 68.0 °F - 67.1 °F 97% 29.92 in 1.0 mi NE 12.7 mph - 0.12 in Rain Rain
7:52 AM 68.0 °F - 67.1 °F 97% 29.89 in 2.0 mi ENE 17.3 mph 25.3 mph 0.12 in   Light Drizzle
8:13 AM 68.4 °F - 67.5 °F 97% 29.92 in 3.0 mi East 6.9 mph 17.3 mph N/A   Overcast
8:33 AM 68.9 °F - 68.0 °F 97% 29.92 in 4.0 mi East 5.8 mph - N/A   Overcast
8:53 AM 69.3 °F - 68.2 °F 96% 29.92 in 5.0 mi ESE 3.5 mph - N/A   Overcast
9:13 AM 69.8 °F - 68.4 °F 95% 29.92 in 5.0 mi East 4.6 mph - N/A   Overcast
9:33 AM 70.7 °F - 68.9 °F 94% 29.92 in 7.0 mi East 6.9 mph - N/A   Overcast
9:52 AM 71.1 °F - 69.1 °F 93% 29.94 in 7.0 mi ENE 6.9 mph - N/A   Overcast
10:13 AM 70.7 °F - 68.4 °F 92% 29.95 in 10.0 mi ENE 5.8 mph - N/A   Overcast
10:33 AM 70.7 °F - 68.2 °F 92% 29.95 in 10.0 mi NE 8.1 mph - N/A   Overcast
10:53 AM 70.7 °F - 68.5 °F 93% 29.94 in 7.0 mi ENE 9.2 mph - N/A   Overcast
11:13 AM 71.1 °F - 68.7 °F 92% 29.95 in 7.0 mi ESE 6.9 mph - N/A   Overcast
11:32 AM 72.3 °F - 69.3 °F 90% 29.94 in 10.0 mi East 8.1 mph - N/A   Overcast
11:53 AM 73.6 °F - 69.3 °F 86% 29.92 in 10.0 mi East 8.1 mph - N/A   Overcast
12:13 PM 72.5 °F - 69.1 °F 89% 29.92 in 10.0 mi ESE 4.6 mph - N/A   Overcast
12:32 PM 74.3 °F - 70.0 °F 86% 29.92 in 10.0 mi East 8.1 mph - N/A   Overcast
12:53 PM 75.0 °F - 70.2 °F 85% 29.92 in 10.0 mi East 9.2 mph - N/A   Overcast
1:12 PM 74.7 °F - 70.3 °F 86% 29.92 in 10.0 mi East 9.2 mph - N/A   Overcast
1:33 PM 75.0 °F - 70.7 °F 86% 29.92 in 10.0 mi East 9.2 mph - N/A   Overcast
1:53 PM 76.6 °F - 71.1 °F 83% 29.91 in 10.0 mi East 10.4 mph - N/A   Mostly Cloudy
2:13 PM 77.4 °F - 71.1 °F 81% 29.91 in 10.0 mi ESE 8.1 mph - N/A   Mostly Cloudy
2:32 PM 77.7 °F - 71.2 °F 80% 29.91 in 10.0 mi East 9.2 mph - N/A   Overcast
2:53 PM 77.2 °F - 71.4 °F 82% 29.90 in 10.0 mi East 9.2 mph - N/A   Overcast
3:12 PM 78.1 °F - 71.8 °F 81% 29.89 in 10.0 mi East 8.1 mph - N/A   Mostly Cloudy
3:33 PM 77.7 °F - 72.0 °F 82% 29.89 in 10.0 mi East 8.1 mph - N/A   Mostly Cloudy
3:53 PM 77.2 °F - 72.1 °F 84% 29.88 in 10.0 mi East 10.4 mph - N/A   Mostly Cloudy
4:12 PM 78.1 °F - 72.5 °F 83% 29.87 in 10.0 mi East 11.5 mph 17.3 mph N/A   Scattered Clouds
4:33 PM 79.9 °F - 72.9 °F 79% 29.87 in 10.0 mi East 12.7 mph 17.3 mph N/A   Scattered Clouds
4:53 PM 80.6 °F 85.4 °F 73.4 °F 79% 29.86 in 10.0 mi East 13.8 mph - N/A   Scattered Clouds
5:13 PM 79.9 °F - 73.4 °F 80% 29.86 in 10.0 mi ESE 11.5 mph 16.1 mph N/A   Scattered Clouds
5:32 PM 79.3 °F - 73.9 °F 83% 29.85 in 10.0 mi East 11.5 mph - N/A   Mostly Cloudy
5:53 PM 78.8 °F - 73.6 °F 84% 29.84 in 10.0 mi East 9.2 mph - N/A   Mostly Cloudy
6:12 PM 78.8 °F - 73.4 °F 83% 29.84 in 10.0 mi East 15.0 mph 20.7 mph N/A   Mostly Cloudy
6:33 PM 79.3 °F - 73.8 °F 83% 29.83 in 10.0 mi East 11.5 mph 18.4 mph N/A   Mostly Cloudy
6:52 PM 79.5 °F - 73.8 °F 82% 29.84 in 10.0 mi ESE 9.2 mph 16.1 mph N/A   Mostly Cloudy
7:13 PM 78.4 °F - 72.7 °F 82% 29.84 in 10.0 mi ESE 9.2 mph 16.1 mph N/A   Scattered Clouds
7:33 PM 78.1 °F - 72.9 °F 84% 29.84 in 10.0 mi SE 8.1 mph - N/A   Scattered Clouds
7:52 PM 77.9 °F - 72.5 °F 83% 29.84 in 10.0 mi ESE 9.2 mph - N/A   Mostly Cloudy
8:13 PM 77.4 °F - 72.5 °F 85% 29.84 in 10.0 mi ESE 9.2 mph - N/A   Overcast
8:33 PM 76.6 °F - 72.1 °F 86% 29.84 in 10.0 mi ESE 8.1 mph - N/A   Overcast
8:52 PM 76.3 °F - 72.0 °F 86% 29.84 in 10.0 mi ESE 10.4 mph - N/A   Mostly Cloudy
9:13 PM 75.6 °F - 71.8 °F 88% 29.85 in 10.0 mi ESE 6.9 mph - N/A   Scattered Clouds
9:33 PM 75.2 °F - 71.8 °F 89% 29.85 in 10.0 mi SE 8.1 mph - N/A   Mostly Cloudy
9:53 PM 74.8 °F - 71.8 °F 90% 29.85 in 10.0 mi SE 8.1 mph - N/A   Overcast
10:13 PM 74.7 °F - 71.6 °F 90% 29.85 in 10.0 mi SE 6.9 mph - N/A   Overcast
10:33 PM 75.2 °F - 71.2 °F 87% 29.84 in 10.0 mi SE 8.1 mph - N/A   Overcast
10:53 PM 74.8 °F - 71.1 °F 88% 29.84 in 10.0 mi SE 8.1 mph - N/A   Overcast
11:12 PM 74.7 °F - 71.1 °F 88% 29.83 in 10.0 mi SE 10.4 mph - N/A   Overcast
11:33 PM 74.7 °F - 71.2 °F 89% 29.82 in 10.0 mi SE 13.8 mph - N/A   Overcast
11:53 PM 74.8 °F - 71.2 °F 88% 29.82 in 10.0 mi SE 10.4 mph - N/A   Overcast